Weather History for Renton, WA

Change the Weather History Date:

Monday, November 11, 2013

  Actual Average Record
Temperature  
Mean Temperature 48 °F -  
Max Temperature 55 °F 52 °F 60 °F (1997)
Min Temperature 42 °F 40 °F 28 °F (2000)
Degree Days  
Heating Degree Days 16    
Moisture  
Dew Point 44 °F    
Average Humidity 88    
Maximum Humidity 100    
Minimum Humidity 60    
Precipitation  
Precipitation 0.00 in - - ()
Sea Level Pressure  
Sea Level Pressure 30.11 in    
Wind  
Wind Speed 4 mph (NNW)    
Max Wind Speed 10 mph    
Max Gust Speed -    
Visibility 8 miles    
Events      
Averages and records for this station are not official NWS values.
T = Trace of Precipitation, MM = Missing Value Source: NWS Daily Summary

Daily Weather History Graph

Daily Weather History Graph

Search for Another Location

Airport:

Trip Planner

Search our weather history database for the weather conditions in past years. The results will help you decide how hot, cold, wet, or windy it might be!

Date:

Astronomy

Nov. 11, 2013 Rise Set
Actual Time 7:08 AM PST 4:37 PM PST
Civil Twilight 6:35 AM PST 5:10 PM PST
Nautical Twilight 5:58 AM PST 5:47 PM PST
Astronomical Twilight 5:21 AM PST 6:23 PM PST
Moon 1:43 PM PST (11/11) 12:34 AM PST (11/11)
Length of Visible Light 10h 35m
Length of Day
9h 28m
Waxing Gibbous, 67% of the Moon is Illuminated
Nov 11
Waxing Gibbous
Nov 17
Full
Nov 25
Last Quarter
Dec 2
New
Dec 9
First Quarter

Hourly Weather History & Observations

Time (PST) Temp. Windchill Dew Point Humidity Pressure Visibility Wind Dir Wind Speed Gust Speed Precip Events Conditions
12:22 AM 46.4 °F 41.5 °F 44.6 °F 93% 30.12 in 10.0 mi NW 10.4 mph - N/A   Partly Cloudy
12:53 AM 46.9 °F - 45.0 °F 93% 30.13 in 10.0 mi NNW 8.1 mph - N/A   Mostly Cloudy
1:40 AM 46.4 °F 43.5 °F 44.6 °F 93% 30.13 in 10.0 mi North 5.8 mph - N/A   Scattered Clouds
1:53 AM 46.9 °F - 45.0 °F 93% 30.14 in 10.0 mi Calm Calm - N/A   Partly Cloudy
2:11 AM 46.4 °F 45.2 °F 44.6 °F 93% 30.13 in 10.0 mi North 3.5 mph - N/A   Mostly Cloudy
2:45 AM 46.4 °F 45.2 °F 44.6 °F 93% 30.12 in 10.0 mi North 3.5 mph - N/A   Scattered Clouds
2:53 AM 46.9 °F - 45.0 °F 93% 30.14 in 10.0 mi North 3.5 mph - N/A   Partly Cloudy
3:53 AM 46.0 °F - 45.0 °F 96% 30.14 in 6.0 mi Calm Calm - N/A   Clear
4:53 AM 45.0 °F - 44.1 °F 97% 30.14 in 6.0 mi Calm Calm - N/A   Clear
5:53 AM 45.0 °F - 44.1 °F 97% 30.14 in 6.0 mi Calm Calm - N/A   Clear
6:03 AM 44.6 °F - 44.6 °F 100% 30.13 in 6.0 mi Calm Calm - N/A   Partly Cloudy
6:20 AM 44.6 °F - 44.6 °F 100% 30.14 in 6.0 mi Calm Calm - N/A   Mostly Cloudy
6:46 AM 42.8 °F - 42.8 °F 100% 30.15 in 5.0 mi Calm Calm - N/A   Scattered Clouds
6:53 AM 42.1 °F - 42.1 °F 100% 30.17 in 6.0 mi Calm Calm - N/A   Partly Cloudy
7:53 AM 42.1 °F - 41.0 °F 96% 30.16 in 8.0 mi Calm Calm - N/A   Clear
8:53 AM 44.1 °F - 43.0 °F 96% 30.19 in 8.0 mi Calm Calm - N/A   Partly Cloudy
9:53 AM 45.0 °F - 43.0 °F 93% 30.17 in 4.0 mi Calm Calm - N/A   Clear
10:53 AM 46.9 °F - 44.1 °F 90% 30.16 in 8.0 mi Calm Calm - N/A   Clear
11:53 AM 50.0 °F - 46.0 °F 86% 30.14 in 6.0 mi WNW 4.6 mph - N/A   Clear
12:53 PM 53.1 °F - 46.0 °F 77% 30.14 in 7.0 mi Variable 3.5 mph - N/A   Clear
1:53 PM 55.0 °F - 46.9 °F 74% 30.09 in 9.0 mi NW 4.6 mph - N/A   Clear
2:53 PM 55.0 °F - 46.0 °F 72% 30.08 in 9.0 mi NW 5.8 mph - N/A   Clear
3:53 PM 54.0 °F - 46.0 °F 75% 30.06 in 8.0 mi WNW 5.8 mph - N/A   Clear
4:53 PM 51.1 °F - 45.0 °F 80% 30.05 in 9.0 mi Calm Calm - N/A   Clear
5:53 PM 55.9 °F - 42.1 °F 60% 30.05 in 10.0 mi Calm Calm - N/A   Clear
6:53 PM 51.1 °F - 45.0 °F 80% 30.04 in 10.0 mi NNW 3.5 mph - N/A   Clear
7:53 PM 53.1 °F - 44.1 °F 71% 30.04 in 10.0 mi Calm Calm - N/A   Clear
8:53 PM 51.1 °F - 45.0 °F 80% 30.04 in 9.0 mi Calm Calm - N/A   Clear
9:53 PM 50.0 °F - 43.0 °F 77% 30.02 in 9.0 mi NW 8.1 mph - N/A   Clear
10:53 PM 48.9 °F - 45.0 °F 86% 30.02 in 8.0 mi Calm Calm - N/A   Clear
11:53 PM 46.9 °F - 42.1 °F 83% 30.05 in 7.0 mi SE 3.5 mph - N/A   Clear